Location: Dobrava
(46.4653°N, 15.1239°E)
Time: 12:39:11
(UTC+00:00)

Daily predictions for brighter satellites

Satellite Brightness Start Highest point End
(mag) Time Altitude Azimuth Time Altitude Azimuth Time Altitude Azimuth
Meteor 2-3 Rocket 4.1 18:41:36 10° SSW 18:47:24 75° WNW 18:53:14 10° N
FREGAT/IRIS 2.9 18:49:25 10° S 18:52:01 58° W 18:54:38 10° NNW
Cosmos 2218 Rocket 4.1 18:47:31 10° S 18:53:42 90° ENE 18:59:53 10° N
H-2A R/B 3.6 18:52:18 10° SSW 18:57:06 37° W 19:01:48 10° NNW
Cosmos 1782 3.1 18:53:24 10° NNW 18:57:24 74° W 19:01:25 10° S
Cosmos 1805 Rocket 4.1 18:55:56 10° SSE 19:00:03 40° E 19:04:14 10° NNE
Cosmos 1980 Rocket 3.6 18:55:26 10° N 19:00:09 26° NE 19:04:50 10° ESE
ERBS 3.2 18:58:38 10° WSW 19:01:54 51° NW 19:05:09 10° NE
DMSP B5D2-2 4.1 19:00:20 10° NNE 19:05:36 82° ESE 19:10:50 10° SSW
ATLAS 5 CENTAUR R/B 2.4 19:03:14 10° NW 19:08:56 90° SW 19:15:36 10° SE
OE (NEXTSAT) 4.5 19:05:38 10° W 19:09:06 62° SSW 19:12:17 12° ESE
Cosmos 1140 Rocket 4.4 19:05:15 10° SSE 19:09:35 27° E 19:13:57 10° NE
SL-4 R/B 2.8 19:06:26 10° SSW 19:09:50 26° SE 19:13:02 10° E
Cosmos 1697 Rocket 3.0 19:10:50 10° NNW 19:16:20 53° ENE 19:21:20 12° SE
Cosmos 1833 Rocket 3.0 19:11:20 10° S 19:16:37 44° ESE 19:21:57 10° NE
Cosmos 2228 Rocket 3.3 19:13:19 10° NNW 19:17:45 73° W 19:22:07 10° S
Cosmos 389 Rocket 2.3 19:17:21 10° N 19:20:48 77° ENE 19:24:15 10° SSE
SPOT 3 Rocket 3.6 19:15:54 10° SSE 19:21:07 84° WSW 19:26:22 10° NNW
Cosmos 1633 Rocket 4.0 19:18:03 11° SSE 19:21:44 28° E 19:25:32 10° NNE
Cosmos 1812 2.7 19:18:51 10° N 19:22:42 69° E 19:26:31 10° SSE
Cosmos 1727 Rocket 4.3 19:16:28 10° NNW 19:22:50 75° W 19:29:09 10° S
Cosmos 2251 Rocket 4.1 19:18:26 10° SW 19:23:37 62° WNW 19:28:53 10° NNE
Cosmos 1656 3.8 19:22:28 10° NNW 19:27:56 76° WSW 19:33:28 10° SSE
IRIDIUM 104 4.3 19:26:17 10° S 19:31:30 90° W 19:36:46 10° N
Cosmos 1707 Rocket 3.7 19:27:52 10° N 19:32:11 57° ENE 19:35:44 14° SSE
Resurs 01 Rocket 1.6 19:27:50 10° SSE 19:32:15 89° WSW 19:36:43 10° NNW
Cosmos 220 Rocket 3.9 19:28:13 10° NNW 19:32:27 90° NE 19:36:05 14° SSE
Landsat 7 4.3 19:30:06 15° SE 19:33:47 46° ENE 19:38:20 10° N
FALCON 9 DEB 4.0 19:34:55 10° SSW 19:38:00 29° SE 19:41:05 10° ENE
Cosmos 1441 Rocket 3.1 19:34:24 10° S 19:38:12 89° W 19:42:00 10° N
Cosmos 1934 Rocket 4.3 19:32:48 10° SSE 19:38:53 51° E 19:45:01 10° NNE
Cosmos 614 Rocket 3.9 19:36:52 10° SSW 19:42:02 87° ESE 19:47:16 10° NNE
NOSS 3-2 (A) 4.2 19:38:20 10° SSE 19:43:01 27° ESE 19:48:09 10° NE
Cosmos 2360 4.3 19:37:38 10° NNW 19:43:22 65° ENE 19:47:32 19° SE
IGS 5A 3.7 19:41:07 19° SE 19:43:55 54° ENE 19:47:59 10° N
USA 267 3.2 19:40:48 10° NE 19:47:23 81° SE 19:53:56 10° SW
SWAS 4.4 19:45:14 10° SSW 19:49:29 63° ESE 19:53:47 10° NE
GP-B 3.4 19:46:16 10° NNE 19:50:34 47° E 19:53:14 21° SSE
Cosmos 1821 Rocket 4.1 19:45:56 10° S 19:52:04 82° W 19:58:20 10° N
COSMOS 2406 3.6 19:48:51 10° SW 19:54:34 69° WNW 20:00:19 10° NNE
Shenzhou-11 Module 2.8 19:53:45 10° WSW 19:55:30 25° SSW 19:55:30 25° SSW
Cosmos 921 Rocket 4.0 19:52:31 10° N 19:56:19 30° ENE 19:58:03 22° ESE
Intercosmos 25 4.1 19:54:08 10° NNW 19:58:31 50° W 20:01:25 13° SSW
Cosmos 1862 Rocket 3.8 19:54:19 10° N 19:58:43 54° ENE 20:01:01 26° SE
SL-16 R/B 3.8 19:54:20 10° N 19:58:52 24° NE 20:02:26 14° E
ERS-1 Rocket 3.5 19:56:09 23° SE 19:58:56 44° ENE 20:03:43 10° N
Lacrosse 5 3.2 19:57:26 10° NW 20:02:03 33° NNE 20:06:22 11° E
Cosmos 2369 3.8 19:58:26 10° NNW 20:04:11 78° WSW 20:08:05 21° SSE
Sich 1 3.7 20:00:02 10° SSW 20:04:24 58° WNW 20:08:48 10° N
SAR-Lupe-2 4.3 20:04:08 10° NNE 20:07:23 31° E 20:07:36 31° ESE
Cosmos 1818 4.0 20:03:38 10° NW 20:08:58 55° WSW 20:12:24 21° S
BREEZE-M DEB (TANK) 2.7 20:06:49 10° WNW 20:09:17 40° N 20:09:55 29° NE
Cosmos 2082 Rocket 2.1 20:03:58 10° SSW 20:09:37 70° ESE 20:15:17 10° NNE
Cosmos 1954 Rocket 4.1 20:06:50 14° S 20:11:21 57° ESE 20:16:35 10° NNE
Cosmos 2123 Rocket 4.0 20:07:10 10° N 20:13:25 87° W 20:18:06 19° S
Cosmos 2278 3.7 20:07:44 10° NNW 20:13:30 86° ENE 20:16:44 27° SSE
Spot 2 Rocket 3.6 20:11:25 21° S 20:14:56 77° WSW 20:20:04 10° NNW
Cosmos 1535 Rocket 4.4 20:09:01 10° S 20:15:11 88° E 20:21:20 10° N
Meteor 1-4 Rocket 2.9 20:17:39 10° NNW 20:21:04 58° W 20:22:26 32° SSW
Cosmos 2322 Rocket 3.6 20:16:35 10° N 20:21:26 28° NE 20:24:25 18° E
CARTOSAT-1 3.6 20:20:05 36° SE 20:21:46 68° ENE 20:26:04 10° N
Cosmos 1184 Rocket 2.6 20:21:02 44° S 20:21:57 85° E 20:25:16 10° NNE
Cosmos 1190 Rocket 4.2 20:17:08 10° SSW 20:22:24 73° WNW 20:27:43 10° NNE
USA 234 3.2 20:18:46 26° SE 20:22:48 85° SW 20:29:24 10° NW
Terra 2.3 20:21:08 31° ESE 20:22:53 46° ENE 20:27:26 10° N
Cosmos 407 Rocket 4.2 20:20:10 10° SW 20:25:24 57° WNW 20:30:38 10° NNE
Cosmos 1605 Rocket 3.9 20:21:08 20° S 20:25:29 73° E 20:31:35 10° NNE
Cosmos 1933 Rocket 3.8 20:24:16 38° SE 20:25:30 51° E 20:29:48 10° NNE
Cosmos 1666 Rocket 4.3 20:21:49 10° SSW 20:26:00 51° WNW 20:30:16 10° N
Meteor 1-20 Rocket 4.2 20:23:25 21° S 20:27:21 72° E 20:33:12 10° NNE
Cosmos 1238 Rocket 2.2 20:28:02 60° ENE 20:28:02 60° ENE 20:30:47 10° NNE
Okean 1 3.6 20:26:43 10° N 20:30:41 53° ENE 20:31:27 45° ESE
Cosmos 1602 3.9 20:31:37 49° ESE 20:32:05 52° E 20:35:55 10° NNE
ATLAS 3B R/B 4.3 20:34:01 14° E 20:34:01 14° E 20:35:54 10° ENE
Cosmos 1437 Rocket 3.4 20:31:37 10° N 20:35:13 38° ENE 20:35:27 37° E
Cosmos 2360 Rocket 4.0 20:31:10 10° N 20:35:27 21° NE 20:38:35 14° E
CZ-4B DEB 4.4 20:35:36 57° SSW 20:36:07 71° WSW 20:39:28 10° NNW
SPOT 5 2.5 20:35:54 44° SSE 20:37:15 83° ENE 20:41:37 10° NNW
USA 238 DEB 3.6 20:31:58 10° SSW 20:38:30 65° ESE 20:45:18 10° NE
USA 238 3.6 20:32:06 10° SSW 20:38:36 64° ESE 20:45:24 10° NE
Meteor 1-19 Rocket 4.2 20:34:55 10° N 20:40:18 64° ENE 20:42:13 39° SE
Iridium 4 Rocket 4.2 20:41:59 28° E 20:41:59 28° E 20:45:37 10° NNE
SPOT 1/Viking Rocket 4.1 20:39:53 24° SSW 20:42:52 54° W 20:48:00 10° NNW
Cosmos 1980 Rocket 2.4 20:39:00 10° NNW 20:44:37 63° WSW 20:47:05 33° S
Cosmos 1703 Rocket 3.6 20:42:05 10° N 20:46:24 60° ENE 20:47:05 52° ESE
Cosmos 2242 Rocket 3.5 20:41:58 10° N 20:46:26 83° E 20:47:29 52° SSE
Meteor 1-14 Rocket 4.3 20:46:52 37° SSE 20:49:06 63° E 20:54:59 10° NNE
SL-4 R/B 1.9 20:45:21 10° WSW 20:49:13 71° NNW 20:51:35 20° ENE
Cosmos 1763 Rocket 3.7 20:44:17 10° NNW 20:49:34 60° ENE 20:51:08 42° ESE
Cosmos 405 Rocket 2.4 20:49:21 72° S 20:49:43 90° E 20:53:27 10° N
BREEZE-M DEB (TANK) 3.4 20:47:09 10° W 20:50:20 64° N 21:00:09 10° E
Genesis I 3.4 20:46:34 10° NW 20:50:22 55° WSW 20:50:44 52° SSW
ATLAS 5 CENTAUR R/B 4.3 20:49:00 10° WNW 20:53:12 20° WSW 20:57:17 11° SSW
Cosmos 2333 Rocket 4.5 20:51:55 10° N 20:55:16 15° NE 20:58:36 10° ENE
Cosmos 1459 Rocket 4.3 20:58:06 40° SE 20:59:51 51° E 21:05:58 10° NNE
Cosmos 1697 Rocket 4.3 20:55:24 10° NW 20:59:58 26° WSW 21:03:04 16° SSW
Cosmos 1833 Rocket 4.4 20:55:38 10° WSW 21:00:41 33° NW 21:05:47 10° NNE
Cosmos 1153 Rocket 4.4 21:03:25 33° S 21:06:22 87° W 21:12:34 10° N
CENTAUR R/B 2.5 21:04:45 38° S 21:06:58 60° ESE 21:13:48 10° NE
Cosmos 1867 4.0 21:01:44 10° SW 21:07:07 61° NW 21:12:32 10° NNE
Meteor 1-18 Rocket 4.3 21:02:20 10° NNW 21:07:55 70° W 21:09:50 41° SSW
Okean 1-7 2.8 21:03:44 10° N 21:08:06 89° WSW 21:08:30 74° S
Okean 3 4.1 21:10:01 10° N 21:13:59 43° ENE 21:13:59 43° ENE
FALCON 9 DEB 3.9 21:11:27 10° WSW 21:14:54 53° NNW 21:15:22 48° N
Cosmos 1802 Rocket 4.2 21:13:52 45° SE 21:15:24 55° E 21:21:36 10° NNE
Cosmos 1850 Rocket 3.9 21:14:18 52° S 21:15:38 80° ESE 21:20:57 10° NNE
Thor Agena Rocket 4.4 21:12:17 10° NNE 21:16:25 32° E 21:16:25 32° E
Meteor 2-4 Rocket 3.6 21:11:57 10° N 21:17:40 80° ENE 21:18:53 56° SSE
SL-27 R/B 4.2 21:19:36 23° NE 21:19:36 23° NE 21:21:05 10° NNE
Cosmos 1515 4.0 21:14:40 10° NNW 21:18:22 61° W 21:18:22 61° W
Cosmos 44 3.9 21:17:23 10° NNW 21:22:09 51° NE 21:23:09 44° E
ATLAS 5 CENTAUR R/B 2.8 21:19:29 10° NNW 21:22:16 48° NE 21:23:25 39° E
Spot 4 4.2 21:27:26 48° E 21:27:47 49° ENE 21:32:25 10° N
USA 267 4.2 21:23:57 10° NE 21:30:08 47° NNW 21:36:19 10° W
BREEZE-M DEB (TANK) 4.4 21:15:49 10° W 21:32:25 88° S 21:35:19 29° E
NOSS 3-2 (A) 3.8 21:27:34 10° SW 21:33:17 61° NW 21:39:51 10° NE
Cosmos 921 Rocket 4.5 21:30:57 10° NW 21:34:29 26° W 21:34:51 26° WSW
NOSS 3-2 (C) 3.4 21:35:51 29° SW 21:39:02 83° NW 21:45:40 10° NE
Cosmos 841 Rocket 3.3 21:36:18 10° NNW 21:41:34 86° ENE 21:42:00 75° SE
Cosmos 540 Rocket 3.3 21:37:48 10° NNW 21:43:01 85° ENE 21:43:22 77° SE
SL-16 R/B 2.2 21:37:52 10° NNW 21:43:32 71° WSW 21:44:17 62° SSW
Lacrosse 5 1.7 21:40:23 10° NW 21:45:28 82° SW 21:45:31 81° SSW
Cosmos 1741 Rocket 4.5 21:48:23 38° WSW 21:50:09 57° WNW 21:55:22 10° NNE
Cosmos 1570 Rocket 3.9 21:47:31 10° NNW 21:52:50 76° WSW 21:53:10 72° SW
Tsikada Rocket 4.0 21:47:27 10° N 21:53:50 68° E 21:54:55 58° SE
Cosmos 2082 Rocket 4.3 21:49:42 10° W 21:54:16 24° NW 21:58:49 10° N
Cosmos 2219 Rocket 3.6 21:49:42 10° N 21:54:39 30° NE 21:56:38 24° E
Cosmos 2208 Rocket 3.8 21:49:39 10° NNW 21:54:58 86° WSW 21:55:11 82° S
Cosmos 1814 Rocket 3.8 21:50:06 10° NNW 21:55:20 89° WSW 21:55:32 83° SSE
Cosmos 2084 Rocket 4.2 21:59:01 45° NE 21:59:01 45° NE 22:02:04 10° NE
Cosmos 2237 4.1 21:54:14 10° NNW 22:00:00 80° ENE 22:00:34 71° ESE
Terra 3.5 22:00:02 21° WSW 22:00:51 22° W 22:04:35 10° NW
Cosmos 2322 Rocket 2.4 22:00:16 10° NNW 22:05:51 58° WSW 22:06:13 57° SW
EO 1 Del DPAF 4.5 22:02:34 10° NNE 22:04:57 37° NNE 22:04:57 37° NNE
USA 234 4.4 22:06:06 26° SW 22:06:24 26° SW 22:11:45 10° WNW
Meteor 1-11 Rocket 3.6 22:09:09 71° SW 22:09:46 81° WNW 22:15:32 10° N
Cosmos 1242 Rocket 4.1 22:09:56 10° N 22:12:07 34° N 22:12:07 34° N
Cosmos 2360 Rocket 2.0 22:14:27 10° NNW 22:20:09 81° WSW 22:20:19 79° SW
COSMOS 2428 3.7 22:15:48 10° NNW 22:21:12 40° NE 22:22:37 34° E
ATLAS 3B R/B 2.4 22:21:12 67° S 22:22:01 76° SE 22:28:40 10° NE
ALOS 2 3.0 22:27:44 60° NNW 22:27:44 60° NNW 22:31:22 10° NNW
Cosmos 1725 Rocket 4.2 22:27:19 53° SW 22:28:37 65° WNW 22:34:55 10° N
SL-4 R/B 4.0 22:25:44 10° WNW 22:27:13 20° WNW 22:27:13 20° WNW
Nimbus 7 Rocket 4.2 22:25:53 10° NNE 22:31:48 86° ESE 22:32:15 77° S
Cosmos 1536 4.1 22:34:39 37° NW 22:34:39 37° NW 22:37:37 10° N
Cosmos 1674 Rocket 4.2 22:29:50 10° NNW 22:33:13 52° NNW 22:33:13 52° NNW
Cosmos 1666 4.5 22:37:32 27° NW 22:37:32 27° NW 22:40:00 10° N
Cosmos 1743 4.2 22:38:17 36° NNE 22:38:17 36° NNE 22:40:40 10° NNE
Cosmos 2333 Rocket 2.4 22:34:58 10° NNW 22:40:44 65° ENE 22:41:19 61° E
Cosmos 1271 Rocket 4.2 22:38:29 10° N 22:40:47 35° N 22:40:47 35° N
Lacrosse 4 Rocket 2.7 22:45:23 36° NE 22:45:23 36° NE 22:47:57 10° NE
Cosmos 2237 Rocket 3.9 22:40:01 10° N 22:44:47 27° NE 22:47:32 18° E
Cosmos 1733 Rocket 4.2 22:50:59 37° WNW 22:50:59 37° WNW 22:54:40 10° N
Meteor 2-11 Rocket 4.2 22:51:23 78° S 22:51:49 90° E 22:57:57 10° N
Cosmos 44 Rocket 4.0 22:52:13 10° NNW 22:57:05 50° NE 22:57:30 48° ENE
CENTAUR R/B 3.9 22:52:12 10° WSW 22:58:03 39° NNW 23:04:52 10° NE
Cosmos 968 Rocket 3.5 22:59:01 73° NNE 22:59:01 73° NNE 23:03:39 10° NNE
Cosmos 1975 4.2 23:02:22 37° NNE 23:02:22 37° NNE 23:04:57 10° NNE
Cosmos 1354 Rocket 4.3 23:07:09 58° ENE 23:07:09 58° ENE 23:11:53 10° NNE
Resurs 1-4 Rocket 4.4 23:05:49 10° ENE 23:07:43 12° E 23:08:21 12° E
Cosmos 1782 Rocket 4.3 23:10:37 49° NNE 23:10:37 49° NNE 23:13:52 10° NNE
Cosmos 1464 Rocket 3.8 23:15:36 72° SE 23:16:09 78° E 23:22:22 10° N
Cosmos 1707 4.4 23:13:34 10° N 23:16:13 31° NE 23:16:13 31° NE
Cosmos 1908 Rocket 4.5 23:18:33 44° NW 23:18:33 44° NW 23:22:00 10° N
Cosmos 2227 Rocket 3.7 23:22:42 23° E 23:22:42 23° E 23:26:53 10° NE
Helios 1B rocket 3.8 23:19:07 10° NNE 23:21:48 33° NE 23:21:48 33° NE
CZ-4 R/B 4.2 23:18:29 10° NNE 23:23:00 61° ENE 23:23:00 61° ENE
Meteor 1-21 4.1 23:19:19 10° NNW 23:25:11 87° W 23:25:21 84° SSW
Lacrosse 5 4.4 23:24:40 10° W 23:24:41 10° W 23:24:41 10° W
Cosmos 2322 4.4 23:24:57 10° NW 23:29:31 41° W 23:29:31 41° W
Nadezhda 4 Rocket 3.9 23:30:55 10° N 23:37:15 83° E 23:38:04 69° SSE
Cosmos 2219 Rocket 2.6 23:33:22 10° NW 23:38:19 51° W 23:38:19 51° W
Cosmos 1975 Rocket 4.0 23:39:06 10° NNW 23:42:25 41° NW 23:42:25 41° NW
Cosmos 2034 Rocket 3.8 23:43:53 72° S 23:44:38 90° ESE 23:50:59 10° N
Okean 2 Rocket 3.6 23:45:22 57° NE 23:45:22 57° NE 23:49:08 10° NNE
Cosmos 1503 Rocket 4.3 23:45:55 57° WNW 23:46:11 58° WNW 23:51:31 10° NNE
SL-16 R/B 3.5 23:46:16 26° ESE 23:49:20 42° ENE 23:55:10 10° N
Cosmos 1092 Rocket 4.1 23:45:14 10° N 23:51:29 68° E 23:52:45 54° SE
Cosmos 1300 Rocket 4.1 23:52:28 56° NNE 23:52:28 56° NNE 23:55:58 10° NNE
GEOS 3 Rocket 4.0 23:48:15 10° NE 23:53:17 50° ESE 23:53:17 50° ESE
CZ-2D R/B 3.4 23:49:14 10° NE 23:54:02 30° E 23:54:54 29° ESE
Sich 1 Rocket 4.2 23:55:31 51° NW 23:55:31 51° NW 23:59:07 10° N
